{"data":{"norad_id":55593,"intl_designator":"2023-020AA","name":"STARLINK-5703","alt_names":[],"object_type":"PAYLOAD","status":"ACTIVE","operator":null,"country":"US","launch_date":"2023-02-12","launch_site_code":"AFETR","launch_vehicle":null,"mission":null,"orbit_class":"UNKNOWN","rcs_meters":null,"size_class":null,"mass_kg":null,"dimensions":null,"purposes":["comms"],"wikipedia_slug":null,"has_3d_model":false,"image_url":null,"decayed_at":null,"tle_current":{"epoch":"2026-05-25T02:30:36.385920Z","epoch_age_seconds":59324,"freshness":"FRESH","line1":"1 55593U 23020AA  26145.10458780  .00000230  00000+0  17874-4 0  9990","line2":"2 55593  43.0028 293.2939 0001257 276.7627  83.3082 15.27577366180603","mean_motion":15.27577366,"eccentricity":0.0001257,"inclination_deg":43.0028,"raan_deg":293.2939,"arg_perigee_deg":276.7627,"mean_anomaly_deg":83.3082,"bstar":1.7874e-5,"rev_number":18060,"period_min":94.266911257705,"perigee_km":482.19453111087,"apogee_km":483.91943527825,"semimajor_km":6861.1939831946,"source":"CELESTRAK","updated_at":"2026-05-25T13:38:17.839548Z"}}}